TimeCDT,TemperatureF,Dew PointF,Humidity,Sea Level PressureIn,VisibilityMPH,Wind Direction,Wind SpeedMPH,Gust SpeedMPH,PrecipitationIn,Events,Conditions,WindDirDegrees,DateUTC
12:15 AM,50.9,50.9,100,29.90,1.2,Calm,Calm,-,0.01,Rain,Rain,0,2013-03-31 05:15:00
12:35 AM,50.9,50.9,100,29.90,1.5,Calm,Calm,-,0.01,,Light Drizzle,0,2013-03-31 05:35:00
12:55 AM,50.9,50.9,100,29.90,1.0,Calm,Calm,-,0.02,,Overcast,0,2013-03-31 05:55:00
1:15 AM,50.9,50.9,100,29.89,1.2,Calm,Calm,-,N/A,,Overcast,0,2013-03-31 06:15:00
1:35 AM,50.9,50.9,100,29.89,2.5,West,4.6,-,N/A,,Overcast,270,2013-03-31 06:35:00
1:55 AM,51.1,51.1,100,29.89,2.0,West,5.8,-,N/A,,Overcast,270,2013-03-31 06:55:00
2:15 AM,51.1,51.1,100,29.89,3.0,West,6.9,-,N/A,,Overcast,270,2013-03-31 07:15:00
2:35 AM,51.3,51.3,100,29.89,5.0,West,8.1,-,N/A,,Overcast,270,2013-03-31 07:35:00
2:55 AM,51.1,51.1,100,29.88,4.0,West,4.6,-,N/A,,Overcast,270,2013-03-31 07:55:00
3:15 AM,51.1,51.1,100,29.88,4.0,West,6.9,-,N/A,,Overcast,270,2013-03-31 08:15:00
3:35 AM,51.1,51.1,100,29.88,5.0,West,6.9,-,N/A,,Overcast,280,2013-03-31 08:35:00
3:55 AM,51.1,51.1,100,29.88,5.0,WNW,4.6,-,N/A,,Overcast,290,2013-03-31 08:55:00
4:15 AM,51.1,51.1,100,29.87,5.0,West,6.9,-,N/A,,Overcast,280,2013-03-31 09:15:00
4:35 AM,51.1,51.1,100,29.87,5.0,West,5.8,-,N/A,,Overcast,280,2013-03-31 09:35:00
4:55 AM,51.1,51.1,100,29.88,5.0,WNW,5.8,-,N/A,,Overcast,290,2013-03-31 09:55:00
5:15 AM,51.1,51.1,100,29.87,5.0,WNW,4.6,-,N/A,,Overcast,290,2013-03-31 10:15:00
5:35 AM,50.9,50.9,100,29.87,5.0,WNW,3.5,-,N/A,,Overcast,290,2013-03-31 10:35:00
5:55 AM,50.9,50.9,100,29.88,5.0,WNW,4.6,-,N/A,,Overcast,290,2013-03-31 10:55:00
6:15 AM,50.9,50.9,100,29.89,4.0,West,5.8,-,N/A,,Overcast,270,2013-03-31 11:15:00
6:35 AM,50.9,50.9,100,29.88,5.0,WSW,5.8,-,N/A,,Overcast,250,2013-03-31 11:35:00
6:55 AM,51.1,51.1,100,29.89,4.0,West,4.6,-,N/A,,Overcast,260,2013-03-31 11:55:00
7:15 AM,51.3,51.3,100,29.91,4.0,WSW,5.8,-,N/A,,Overcast,250,2013-03-31 12:15:00
7:35 AM,51.4,51.4,100,29.92,5.0,West,4.6,-,N/A,,Overcast,270,2013-03-31 12:35:00
7:55 AM,51.8,51.8,100,29.91,5.0,West,4.6,-,N/A,,Overcast,270,2013-03-31 12:55:00
8:15 AM,51.8,51.8,100,29.91,5.0,WNW,4.6,-,N/A,,Overcast,300,2013-03-31 13:15:00
8:35 AM,52.3,52.2,99,29.92,5.0,West,6.9,-,N/A,,Overcast,280,2013-03-31 13:35:00
8:55 AM,52.7,52.0,97,29.92,5.0,WNW,8.1,-,N/A,,Overcast,290,2013-03-31 13:55:00
9:15 AM,52.7,52.0,97,29.93,7.0,West,8.1,-,N/A,,Overcast,280,2013-03-31 14:15:00
9:35 AM,52.9,52.0,97,29.92,10.0,West,6.9,-,N/A,,Overcast,280,2013-03-31 14:35:00
9:55 AM,53.6,52.0,94,29.93,10.0,West,8.1,-,N/A,,Overcast,270,2013-03-31 14:55:00
10:15 AM,53.8,52.7,96,29.91,10.0,West,6.9,-,N/A,,Overcast,270,2013-03-31 15:15:00
10:35 AM,54.3,52.7,94,29.93,10.0,West,8.1,-,N/A,,Overcast,280,2013-03-31 15:35:00
10:55 AM,54.7,52.7,93,29.95,10.0,WNW,6.9,-,N/A,,Overcast,290,2013-03-31 15:55:00
11:15 AM,56.1,53.1,89,29.95,10.0,West,6.9,-,N/A,,Mostly Cloudy,280,2013-03-31 16:15:00
11:35 AM,56.3,52.5,87,29.96,10.0,West,8.1,-,N/A,,Mostly Cloudy,280,2013-03-31 16:35:00
11:55 AM,57.0,52.3,84,29.95,10.0,West,9.2,-,N/A,,Overcast,280,2013-03-31 16:55:00
12:15 PM,57.2,51.8,82,29.92,10.0,West,4.6,-,N/A,,Mostly Cloudy,270,2013-03-31 17:15:00
12:35 PM,57.7,52.0,81,29.91,10.0,WNW,5.8,-,N/A,,Mostly Cloudy,300,2013-03-31 17:35:00
12:55 PM,58.6,52.2,79,29.90,10.0,SSW,4.6,-,N/A,,Mostly Cloudy,200,2013-03-31 17:55:00
1:15 PM,59.2,51.4,75,29.89,10.0,West,3.5,-,N/A,,Scattered Clouds,260,2013-03-31 18:15:00
1:35 PM,60.1,51.3,73,29.89,10.0,SW,3.5,-,N/A,,Scattered Clouds,230,2013-03-31 18:35:00
1:55 PM,60.8,51.6,72,29.89,10.0,WSW,5.8,-,N/A,,Scattered Clouds,240,2013-03-31 18:55:00
2:15 PM,61.2,48.9,64,29.88,10.0,Calm,Calm,-,N/A,,Clear,0,2013-03-31 19:15:00
2:35 PM,61.9,49.6,64,29.88,10.0,West,4.6,-,N/A,,Clear,260,2013-03-31 19:35:00
2:55 PM,63.3,48.6,59,29.87,10.0,West,8.1,-,N/A,,Clear,280,2013-03-31 19:55:00
3:15 PM,62.8,47.5,57,29.87,10.0,WSW,4.6,-,N/A,,Clear,250,2013-03-31 20:15:00
3:35 PM,63.7,46.9,54,29.88,10.0,West,5.8,-,N/A,,Clear,280,2013-03-31 20:35:00
3:55 PM,64.2,48.6,57,29.87,10.0,WNW,11.5,16.1,N/A,,Scattered Clouds,290,2013-03-31 20:55:00
4:15 PM,63.5,46.8,54,29.87,10.0,West,6.9,10.4,N/A,,Scattered Clouds,260,2013-03-31 21:15:00
4:35 PM,64.4,46.9,53,29.88,10.0,West,9.2,-,N/A,,Scattered Clouds,270,2013-03-31 21:35:00
4:55 PM,64.2,47.5,55,29.87,10.0,West,6.9,-,N/A,,Clear,260,2013-03-31 21:55:00
5:15 PM,63.7,49.3,59,29.88,10.0,West,9.2,-,N/A,,Scattered Clouds,260,2013-03-31 22:15:00
5:35 PM,63.9,50.7,62,29.88,10.0,West,8.1,-,N/A,,Scattered Clouds,260,2013-03-31 22:35:00
5:55 PM,63.3,51.8,66,29.88,10.0,WSW,5.8,-,N/A,,Scattered Clouds,240,2013-03-31 22:55:00
6:15 PM,62.4,51.6,68,29.88,10.0,WSW,6.9,-,N/A,,Scattered Clouds,240,2013-03-31 23:15:00
6:35 PM,61.0,51.4,71,29.87,10.0,West,5.8,-,N/A,,Clear,260,2013-03-31 23:35:00
6:55 PM,59.4,51.6,76,29.87,10.0,SW,3.5,-,N/A,,Clear,230,2013-03-31 23:55:00
7:15 PM,57.0,50.9,80,29.87,10.0,SW,3.5,-,N/A,,Clear,220,2013-04-01 00:15:00
7:35 PM,57.4,50.0,76,29.87,10.0,SSW,4.6,-,N/A,,Clear,210,2013-04-01 00:35:00
7:55 PM,56.3,49.6,78,29.88,10.0,SW,5.8,-,N/A,,Clear,230,2013-04-01 00:55:00
8:15 PM,54.3,48.9,82,29.88,10.0,WSW,6.9,-,N/A,,Clear,240,2013-04-01 01:15:00
8:35 PM,53.2,48.7,85,29.89,10.0,SW,6.9,-,N/A,,Clear,230,2013-04-01 01:35:00
8:55 PM,53.1,48.7,85,29.89,10.0,SW,6.9,-,N/A,,Clear,220,2013-04-01 01:55:00
9:15 PM,53.8,48.6,82,29.89,10.0,SW,4.6,-,N/A,,Clear,220,2013-04-01 02:15:00
9:35 PM,53.1,48.4,84,29.90,10.0,SW,6.9,-,N/A,,Clear,220,2013-04-01 02:35:00
9:55 PM,52.7,47.8,84,29.90,10.0,SW,5.8,-,N/A,,Clear,230,2013-04-01 02:55:00
10:15 PM,51.8,47.3,85,29.90,10.0,SW,5.8,-,N/A,,Clear,220,2013-04-01 03:15:00
10:35 PM,51.6,47.3,85,29.89,10.0,WSW,5.8,-,N/A,,Clear,240,2013-04-01 03:35:00
10:55 PM,50.0,46.4,87,29.89,10.0,SW,6.9,-,N/A,,Clear,230,2013-04-01 03:55:00
11:15 PM,50.2,46.4,87,29.89,10.0,SW,5.8,-,N/A,,Clear,220,2013-04-01 04:15:00
11:35 PM,50.4,46.6,87,29.89,10.0,SW,5.8,-,N/A,,Clear,230,2013-04-01 04:35:00
11:55 PM,50.0,46.4,87,29.89,10.0,WSW,8.1,-,N/A,,Clear,250,2013-04-01 04:55:00